TimePDT,TemperatureF,Dew PointF,Humidity,Sea Level PressureIn,VisibilityMPH,Wind Direction,Wind SpeedMPH,Gust SpeedMPH,PrecipitationIn,Events,Conditions,WindDirDegrees,DateUTC
12:55 AM,62.1,57.9,86,29.97,10.0,Calm,Calm,-,N/A,,Clear,0,2013-09-11 07:55:00
1:50 AM,62.6,57.2,82,29.95,9.0,Calm,Calm,-,N/A,,Mostly Cloudy,0,2013-09-11 08:50:00
1:55 AM,62.1,57.0,84,29.97,9.0,Calm,Calm,-,N/A,,Mostly Cloudy,0,2013-09-11 08:55:00
2:55 AM,63.0,57.9,84,29.97,10.0,Calm,Calm,-,N/A,,Overcast,0,2013-09-11 09:55:00
3:55 AM,63.0,57.9,84,29.97,10.0,Calm,Calm,-,N/A,,Overcast,0,2013-09-11 10:55:00
4:55 AM,63.0,57.9,84,29.97,10.0,North,3.5,-,N/A,,Overcast,360,2013-09-11 11:55:00
5:55 AM,63.0,57.9,84,29.99,10.0,NNW,3.5,-,N/A,,Overcast,340,2013-09-11 12:55:00
6:05 AM,62.6,57.2,82,29.97,10.0,North,4.6,-,N/A,,Overcast,350,2013-09-11 13:05:00
6:55 AM,63.0,57.9,84,30.00,9.0,NNE,4.6,-,N/A,,Overcast,30,2013-09-11 13:55:00
7:55 AM,64.0,57.9,80,30.01,8.0,ENE,4.6,-,N/A,,Overcast,70,2013-09-11 14:55:00
8:55 AM,64.9,57.9,78,30.02,8.0,East,3.5,-,N/A,,Overcast,100,2013-09-11 15:55:00
9:55 AM,66.0,57.9,75,30.03,8.0,Calm,Calm,-,N/A,,Overcast,0,2013-09-11 16:55:00
10:31 AM,69.8,57.2,64,30.00,9.0,Calm,Calm,-,N/A,,Scattered Clouds,0,2013-09-11 17:31:00
10:55 AM,70.0,57.9,65,30.02,8.0,Variable,5.8,-,N/A,,Partly Cloudy,0,2013-09-11 17:55:00
11:55 AM,73.0,57.9,59,30.01,9.0,WSW,5.8,-,N/A,,Clear,240,2013-09-11 18:55:00
12:55 PM,75.0,59.0,57,30.00,10.0,WSW,9.2,-,N/A,,Clear,240,2013-09-11 19:55:00
1:55 PM,73.9,57.0,55,30.00,10.0,SW,9.2,-,N/A,,Clear,220,2013-09-11 20:55:00
2:55 PM,73.0,57.9,59,29.98,10.0,West,8.1,-,N/A,,Clear,260,2013-09-11 21:55:00
3:55 PM,73.0,57.9,59,29.97,10.0,WSW,9.2,16.1,N/A,,Clear,250,2013-09-11 22:55:00
4:55 PM,72.0,57.9,61,29.96,10.0,West,11.5,-,N/A,,Clear,260,2013-09-11 23:55:00
5:55 PM,70.0,57.9,65,29.96,10.0,WSW,8.1,-,N/A,,Clear,250,2013-09-12 00:55:00
6:55 PM,66.9,57.9,73,29.96,10.0,WSW,4.6,-,N/A,,Clear,250,2013-09-12 01:55:00
7:55 PM,64.9,57.0,75,29.96,10.0,West,4.6,-,N/A,,Clear,260,2013-09-12 02:55:00
8:55 PM,64.0,57.0,78,29.96,10.0,West,4.6,-,N/A,,Clear,280,2013-09-12 03:55:00
9:55 PM,63.0,57.9,84,29.96,10.0,Calm,Calm,-,N/A,,Clear,0,2013-09-12 04:55:00
10:55 PM,63.0,57.9,84,29.97,10.0,Calm,Calm,-,N/A,,Clear,0,2013-09-12 05:55:00
11:55 PM,63.0,57.9,84,29.96,10.0,Calm,Calm,-,N/A,,Clear,0,2013-09-12 06:55:00